Simultaneous Nadir Overpasses (SNOs) Predictions

Prediction of SNOs between NOAA-20 and METOP-C Satellite Orbit:

Table of predicted SNOs for the next 14.0 days since TLE Epoch: 11/8/2023
Index Date (NOAA-20) Time (NOAA-20) Lat,Lon (NOAA-20) SZA (NOAA-20 ) Date (METOP-C) Time (METOP-C) Lat,Lon (METOP-C) SZA (METOP-C ) Distance(km) Time Diff (sec)
1 11/21/2023 21:09:11 73.49,-147.01 93.49 11/21/2023 21:10:18 73.41,-144.43 93.35 82.29 67
2 11/21/2023 21:59:54 -73.43, 20.45 86.58 11/21/2023 22:01:02 -73.35, 22.75 86.71 73.50 68
3 11/21/2023 22:50:35 73.19,-171.72 93.19 11/21/2023 22:51:45 73.14,-170.37 93.10 43.88 70
4 11/21/2023 23:41:18 -73.13, -4.26 86.87 11/21/2023 23:42:29 -73.08, -3.19 86.96 35.29 71
5 11/22/2023 00:31:59 72.90, 163.55 92.89 11/22/2023 00:33:12 72.87, 163.71 92.85 5.90 73
6 11/22/2023 01:22:42 -72.83, -29.00 87.17 11/22/2023 01:23:55 -72.85, -29.00 87.16 2.42 73
7 11/22/2023 02:13:28 72.85, 138.28 92.86 11/22/2023 02:14:34 72.85, 138.33 92.85 1.70 66



Historial Predications of SNOs between NOAA-20 and METOP-C
